Total_Precipitation_Accumulation
0.04 0.04 0.04 0.04 0.07 0.08 0.08 0.10 0.11 0.07 0.04 0.02 0.00 0.00 0.00 0.01 0.01 0.01 0.01 0.01 0.01 0.01 0.02 0.01 0.01 0.01 0.00 0.00 0.00 0.00 0.00 0.00 0.00 0.01 0.02 0.21 0.21 0.20 0.22 0.06 0.06 0.26 0.19 0.17 0.23 0.09 0.06
0.03 0.03 0.03 0.04 0.07 0.08 0.08 0.13 0.09 0.06 0.10 0.05 0.00 0.00 0.00 0.00 0.00 0.01 0.01 0.00 0.00 0.01 0.01 0.01 0.01 0.01 0.00 0.00 0.00 0.00 0.00 0.00 0.00 0.00 0.01 0.15 0.34 0.22 0.20 0.12 0.05 0.13 0.24 0.15 0.28 0.16 0.13
0.03 0.03 0.03 0.04 0.06 0.07 0.08 0.07 0.07 0.12 0.13 0.07 0.01 0.01 0.00 0.00 0.00 0.00 0.00 0.00 0.00 0.01 0.01 0.00 0.02 0.02 0.00 0.00 0.00 0.00 0.00 0.00 0.00 0.00 0.01 0.05 0.29 0.17 0.22 0.12 0.09 0.16 0.21 0.30 0.34 0.37 0.11
0.01 0.02 0.03 0.03 0.05 0.05 0.03 0.05 0.13 0.14 0.12 0.10 0.09 0.03 0.01 0.00 0.00 0.00 0.00 0.00 0.00 0.00 0.00 0.00 0.01 0.01 0.00 0.00 0.00 0.00 0.00 0.00 0.00 0.00 0.00 0.01 0.14 0.13 0.30 0.14 0.13 0.18 0.35 0.35 0.44 0.65 0.22
0.01 0.02 0.02 0.02 0.03 0.03 0.05 0.10 0.13 0.13 0.15 0.18 0.11 0.05 0.03 0.00 0.00 0.00 0.00 0.00 0.00 0.00 0.00 0.00 0.00 0.01 0.00 0.01 0.02 0.01 0.00 0.00 0.00 0.00 0.00 0.00 0.01 0.13 0.33 0.20 0.09 0.08 0.38 0.32 0.23 0.53 0.65
0.01 0.01 0.01 0.01 0.02 0.03 0.06 0.10 0.15 0.17 0.18 0.14 0.11 0.08 0.06 0.02 0.00 0.00 0.00 0.00 0.00 0.00 0.00 0.00 0.00 0.01 0.01 0.05 0.02 0.01 0.00 0.00 0.02 0.03 0.02 0.01 0.02 0.10 0.24 0.27 0.08 0.02 0.18 0.25 0.15 0.39 0.82
0.00 0.00 0.01 0.01 0.01 0.05 0.08 0.10 0.12 0.14 0.15 0.15 0.14 0.13 0.06 0.00 0.00 0.00 0.00 0.00 0.00 0.00 0.00 0.00 0.00 0.00 0.02 0.00 0.00 0.00 0.00 0.01 0.02 0.03 0.02 0.01 0.01 0.05 0.15 0.22 0.05 0.01 0.01 0.09 0.11 0.27 0.57
0.00 0.00 0.01 0.01 0.01 0.03 0.06 0.08 0.11 0.18 0.21 0.17 0.12 0.10 0.04 0.02 0.00 0.00 0.00 0.00 0.00 0.00 0.00 0.00 0.00 0.00 0.00 0.00 0.00 0.00 0.01 0.05 0.06 0.03 0.00 0.01 0.02 0.02 0.10 0.18 0.10 0.02 0.02 0.04 0.10 0.16 0.32
0.00 0.01 0.01 0.02 0.02 0.02 0.06 0.08 0.10 0.16 0.16 0.16 0.14 0.13 0.09 0.04 0.00 0.00 0.00 0.00 0.00 0.00 0.00 0.00 0.00 0.00 0.00 0.00 0.01 0.05 0.14 0.21 0.09 0.01 0.00 0.00 0.09 0.05 0.14 0.22 0.11 0.02 0.01 0.03 0.08 0.11 0.14
0.00 0.01 0.01 0.01 0.01 0.02 0.03 0.08 0.13 0.17 0.20 0.20 0.17 0.14 0.07 0.02 0.00 0.00 0.00 0.00 0.00 0.00 0.00 0.00 0.00 0.00 0.00 0.00 0.01 0.06 0.09 0.11 0.05 0.03 0.02 0.03 0.21 0.05 0.20 0.19 0.06 0.01 0.01 0.02 0.10 0.22 0.10
0.00 0.00 0.01 0.01 0.01 0.01 0.03 0.08 0.13 0.14 0.12 0.13 0.16 0.12 0.05 0.02 0.00 0.00 0.00 0.00 0.00 0.00 0.00 0.00 0.00 0.00 0.00 0.00 0.00 0.07 0.10 0.12 0.07 0.02 0.04 0.21 0.18 0.03 0.18 0.13 0.01 0.00 0.00 0.01 0.04 0.19 0.07
0.00 0.01 0.01 0.01 0.01 0.01 0.01 0.04 0.10 0.12 0.11 0.14 0.16 0.10 0.05 0.01 0.00 0.00 0.00 0.00 0.00 0.00 0.00 0.00 0.00 0.00 0.00 0.00 0.00 0.00 0.00 0.00 0.01 0.06 0.27 0.16 0.05 0.06 0.04 0.03 0.00 0.01 0.03 0.09 0.06 0.05 0.10
0.02 0.03 0.02 0.02 0.00 0.01 0.01 0.05 0.12 0.14 0.18 0.16 0.13 0.10 0.04 0.01 0.00 0.00 0.00 0.00 0.00 0.00 0.00 0.00 0.00 0.00 0.00 0.00 0.00 0.00 0.00 0.00 0.00 0.09 0.19 0.03 0.02 0.01 0.01 0.01 0.01 0.01 0.03 0.27 0.19 0.04 0.02
0.03 0.02 0.03 0.01 0.01 0.04 0.04 0.06 0.13 0.18 0.22 0.23 0.24 0.12 0.03 0.01 0.00 0.00 0.00 0.00 0.00 0.00 0.00 0.00 0.00 0.00 0.00 0.00 0.00 0.00 0.00 0.00 0.00 0.01 0.01 0.02 0.04 0.01 0.00 0.01 0.04 0.02 0.03 0.03 0.02 0.00 0.00
0.02 0.02 0.01 0.02 0.06 0.09 0.06 0.07 0.15 0.22 0.23 0.25 0.22 0.10 0.05 0.02 0.00 0.00 0.00 0.00 0.00 0.00 0.00 0.00 0.00 0.00 0.00 0.00 0.00 0.00 0.00 0.00 0.00 0.00 0.00 0.00 0.01 0.00 0.00 0.00 0.01 0.03 0.01 0.00 0.00 0.00 0.00
0.01 0.01 0.01 0.02 0.05 0.06 0.04 0.07 0.20 0.36 0.34 0.15 0.12 0.13 0.09 0.01 0.00 0.00 0.00 0.00 0.00 0.00 0.00 0.00 0.00 0.00 0.00 0.00 0.00 0.00 0.00 0.00 0.00 0.00 0.00 0.00 0.00 0.00 0.00 0.00 0.00 0.00 0.00 0.00 0.00 0.00 0.00
0.01 0.01 0.01 0.02 0.02 0.01 0.03 0.18 0.64 0.95 0.94 0.54 0.33 0.25 0.10 0.02 0.00 0.00 0.00 0.00 0.00 0.00 0.00 0.00 0.00 0.00 0.00 0.00 0.00 0.00 0.00 0.00 0.00 0.00 0.00 0.00 0.00 0.00 0.00 0.00 0.00 0.00 0.00 0.00 0.00 0.00 0.00
0.01 0.01 0.01 0.02 0.02 0.01 0.03 0.13 0.40 0.74 0.80 0.78 0.60 0.33 0.12 0.04 0.01 0.00 0.00 0.00 0.00 0.00 0.00 0.00 0.00 0.00 0.00 0.00 0.00 0.00 0.00 0.00 0.00 0.00 0.00 0.00 0.00 0.00 0.00 0.00 0.00 0.00 0.00 0.00 0.00 0.00 0.00
0.00 0.03 0.03 0.04 0.02 0.02 0.03 0.04 0.12 0.41 0.45 0.47 0.46 0.42 0.26 0.10 0.02 0.00 0.00 0.00 0.00 0.00 0.00 0.00 0.00 0.00 0.00 0.00 0.00 0.00 0.00 0.00 0.00 0.00 0.00 0.00 0.00 0.00 0.00 0.00 0.00 0.00 0.00 0.00 0.00 0.00 0.00
0.03 0.04 0.05 0.05 0.03 0.03 0.10 0.19 0.10 0.19 0.35 0.43 0.40 0.33 0.30 0.14 0.02 0.00 0.00 0.00 0.00 0.00 0.00 0.00 0.00 0.00 0.00 0.00 0.00 0.00 0.00 0.00 0.00 0.00 0.00 0.00 0.00 0.00 0.00 0.00 0.00 0.00 0.00 0.00 0.00 0.00 0.00
0.04 0.05 0.06 0.06 0.04 0.06 0.17 0.55 0.57 0.47 0.42 0.50 0.34 0.18 0.09 0.07 0.02 0.00 0.00 0.00 0.00 0.00 0.00 0.00 0.00 0.00 0.00 0.00 0.00 0.00 0.00 0.00 0.00 0.00 0.00 0.00 0.00 0.00 0.00 0.00 0.00 0.00 0.00 0.00 0.00 0.00 0.00
0.06 0.06 0.05 0.05 0.05 0.11 0.17 0.30 0.58 0.72 0.67 0.68 0.31 0.17 0.13 0.04 0.00 0.00 0.00 0.00 0.00 0.00 0.00 0.00 0.00 0.00 0.00 0.00 0.00 0.00 0.00 0.00 0.00 0.00 0.00 0.00 0.00 0.00 0.00 0.00 0.00 0.00 0.00 0.00 0.00 0.00 0.00
0.06 0.06 0.05 0.05 0.09 0.23 0.29 0.24 0.39 0.57 0.71 0.59 0.37 0.26 0.11 0.03 0.00 0.00 0.00 0.00 0.00 0.00 0.00 0.00 0.00 0.00 0.00 0.00 0.00 0.00 0.00 0.00 0.00 0.00 0.00 0.00 0.00 0.00 0.00 0.00 0.00 0.00 0.00 0.00 0.00 0.00 0.00
0.06 0.05 0.05 0.06 0.16 0.42 0.86 0.86 0.62 0.49 0.56 0.39 0.29 0.16 0.03 0.00 0.00 0.00 0.00 0.00 0.00 0.00 0.00 0.00 0.00 0.00 0.00 0.00 0.00 0.00 0.00 0.00 0.00 0.00 0.00 0.00 0.00 0.00 0.00 0.00 0.00 0.00 0.00 0.00 0.00 0.00 0.00
0.06 0.06 0.05 0.07 0.14 0.28 0.37 0.59 0.91 0.89 0.60 0.28 0.17 0.04 0.01 0.00 0.00 0.00 0.00 0.00 0.00 0.00 0.00 0.00 0.00 0.00 0.00 0.00 0.01 0.00 0.01 0.00 0.00 0.00 0.00 0.00 0.00 0.01 0.00 0.00 0.00 0.00 0.00 0.00 0.00 0.00 0.00
0.07 0.06 0.05 0.05 0.07 0.16 0.14 0.12 0.33 0.45 0.49 0.17 0.07 0.01 0.00 0.00 0.00 0.00 0.00 0.00 0.00 0.00 0.00 0.00 0.00 0.00 0.00 0.00 0.00 0.00 0.00 0.00 0.00 0.00 0.00 0.00 0.00 0.00 0.01 0.00 0.00 0.00 0.00 0.00 0.00 0.00 0.00
0.06 0.05 0.04 0.05 0.11 0.17 0.17 0.18 0.19 0.16 0.19 0.09 0.03 0.00 0.00 0.00 0.00 0.00 0.00 0.00 0.00 0.00 0.00 0.00 0.00 0.00 0.00 0.00 0.00 0.00 0.00 0.00 0.00 0.00 0.00 0.00 0.00 0.00 0.00 0.00 0.00 0.00 0.00 0.00 0.00 0.00 0.00
0.04 0.03 0.03 0.08 0.26 0.36 0.31 0.33 0.34 0.20 0.16 0.05 0.01 0.00 0.00 0.00 0.00 0.00 0.00 0.00 0.00 0.00 0.00 0.00 0.00 0.00 0.00 0.00 0.00 0.00 0.00 0.00 0.00 0.00 0.00 0.00 0.00 0.00 0.00 0.00 0.00 0.00 0.00 0.00 0.00 0.00 0.00
0.03 0.02 0.03 0.09 0.20 0.48 0.54 0.46 0.36 0.21 0.12 0.02 0.00 0.00 0.00 0.00 0.00 0.00 0.00 0.00 0.00 0.00 0.00 0.00 0.00 0.00 0.00 0.00 0.00 0.00 0.00 0.00 0.00 0.00 0.00 0.00 0.00 0.00 0.00 0.00 0.00 0.00 0.00 0.00 0.00 0.00 0.00